Theta_e
309 309 309 308 307 307 306 306 307 307 307 307 307 307 307 307 307 308 309 310 311 311 312 314 316 315 306 293 292 302 314 312 307 304 300 298 293 292 291 292 293 292 296 299 301 299 295
308 307 309 310 309 309 309 308 308 308 307 306 306 305 305 306 306 307 308 308 309 310 311 312 315 314 295 285 297 301 300 302 301 299 298 298 294 294 293 292 291 293 296 297 295 293 293
310 308 308 307 306 306 305 305 305 305 305 304 304 304 304 305 305 306 307 309 310 311 311 312 315 309 297 289 296 298 300 297 299 299 296 299 298 294 295 291 292 291 289 289 289 292 292
307 306 305 304 304 303 303 303 303 303 303 303 303 302 303 303 304 305 307 309 312 312 312 313 314 303 288 296 295 297 298 296 298 301 298 299 298 295 293 293 290 287 286 282 289 290 290
305 304 303 302 303 302 302 303 303 303 303 303 303 303 303 304 304 306 308 311 312 312 312 315 302 293 286 300 292 295 297 294 296 297 297 299 295 290 291 286 283 284 280 281 284 288 287
303 303 302 302 302 302 302 302 303 303 302 302 303 303 303 303 304 306 309 310 312 308 310 309 303 287 290 287 292 294 295 297 294 292 292 290 288 284 283 284 278 280 279 280 280 282 283
302 301 301 301 301 301 302 302 302 303 303 302 302 302 303 303 304 306 303 297 291 290 294 290 290 288 290 292 294 293 295 295 293 289 283 286 282 280 283 283 284 281 279 278 280 283 282
300 300 300 301 300 301 301 302 302 302 303 302 302 302 302 303 304 304 299 293 294 297 288 294 295 294 296 293 290 290 296 289 288 282 284 282 279 285 286 285 284 283 280 279 282 284 282
303 302 303 303 301 301 302 301 302 302 302 302 302 302 302 302 302 295 293 293 298 297 290 290 295 294 292 293 290 289 292 289 286 282 282 279 282 287 285 283 282 281 280 280 280 281 281
302 301 302 302 302 302 302 301 301 301 301 302 302 302 302 301 292 290 293 296 297 297 274 280 288 290 291 290 285 292 293 288 285 282 282 281 285 284 282 282 283 279 284 284 282 278 273
300 301 301 300 300 301 302 302 301 301 301 301 302 301 301 300 289 288 293 296 296 292 263 280 286 294 291 287 286 287 291 288 282 282 281 279 280 281 281 283 285 280 283 282 281 277 275
303 302 301 300 300 300 301 300 300 301 301 301 301 301 300 292 290 292 295 295 294 271 262 278 286 285 284 285 285 286 286 288 286 283 282 281 283 283 282 284 285 285 283 282 280 277 265
302 301 302 301 300 300 301 301 300 301 301 301 301 300 295 294 285 293 295 288 270 264 276 275 281 284 282 282 282 282 281 280 278 274 276 279 280 283 285 280 284 284 280 273 267 264 267
300 300 300 301 302 300 300 300 301 301 301 301 300 298 292 293 291 293 291 277 261 260 264 281 284 283 280 282 282 281 279 276 279 277 274 274 274 280 283 282 279 281 281 273 264 265 270
299 299 299 299 300 301 300 301 300 300 300 300 298 286 286 292 291 292 282 264 264 268 281 283 281 272 272 279 280 279 277 277 279 280 274 273 276 280 282 284 284 280 277 282 273 265 267
300 299 299 298 298 298 298 299 299 299 299 298 285 282 284 289 289 288 275 271 271 282 282 283 275 273 266 271 278 277 276 280 280 282 282 279 272 279 280 282 282 280 283 277 275 266 262
300 300 298 298 298 299 299 299 299 299 299 297 283 278 285 289 289 279 267 267 279 282 281 280 280 278 280 277 279 275 278 281 282 282 282 281 278 277 279 277 277 277 272 277 280 276 266
300 300 298 299 299 298 299 299 299 299 299 291 281 270 284 286 273 262 264 277 281 279 279 280 280 280 278 276 271 277 278 279 281 281 278 283 281 274 276 280 281 281 278 278 276 271 273
299 300 299 298 298 299 298 299 299 299 298 287 274 275 284 282 262 261 269 276 278 278 277 277 277 278 277 270 270 274 277 283 281 278 276 282 274 265 274 276 277 277 278 279 277 278 276
299 300 299 299 298 299 299 299 299 298 297 285 274 268 272 275 274 271 265 268 273 279 278 279 278 278 273 267 273 266 273 279 279 279 284 286 278 270 272 275 276 275 279 279 278 273 273
299 299 299 298 297 298 298 298 299 298 297 287 278 270 270 264 267 272 274 273 273 269 277 279 275 275 271 262 264 264 270 274 276 279 279 277 269 276 275 279 277 276 277 280 278 278 275
298 298 299 297 298 298 298 298 298 298 297 288 275 275 276 269 274 273 273 270 273 272 273 274 271 274 273 265 269 262 265 268 271 272 273 277 268 271 270 277 281 279 280 277 280 281 280
298 298 297 298 298 298 298 298 298 298 296 287 286 285 280 278 274 272 272 272 273 276 276 277 275 270 273 274 273 275 276 277 274 268 267 269 271 269 265 275 278 276 279 280 276 275 277
298 298 297 298 298 298 297 297 297 297 296 290 287 283 278 273 273 273 275 276 275 276 274 277 277 274 277 279 278 276 276 276 274 273 275 268 268 271 266 267 265 278 283 284 283 284 283
297 297 297 297 297 297 296 297 297 297 297 291 290 285 280 274 277 275 275 275 277 277 276 277 278 280 280 277 270 260 259 260 264 273 272 274 270 267 265 267 272 277 278 279 278 280 285
296 296 297 296 296 296 296 297 297 297 297 292 290 290 284 277 275 279 276 276 273 271 267 274 279 279 280 274 264 260 254 255 258 262 274 274 273 269 268 266 266 275 281 282 283 277 285
296 296 295 295 296 297 296 297 297 298 298 294 290 291 285 278 281 280 276 275 278 276 271 266 270 274 278 267 265 257 259 264 258 261 266 268 271 266 267 267 272 280 281 281 275 276 281
296 295 296 296 296 296 297 298 298 298 298 295 290 292 286 281 281 282 281 279 278 277 270 268 272 270 266 264 260 259 256 263 263 268 267 268 268 269 268 268 267 279 283 277 278 281 282
294 295 296 295 296 297 297 297 297 297 297 299 290 292 292 284 281 283 285 285 284 282 278 277 273 268 274 260 259 259 257 258 260 257 274 267 270 268 271 273 278 279 279 283 282 281 282
Wind_Speed
14 12 13 12 11 11 13 13 14 15 16 15 17 18 19 20 21 22 22 22 22 22 21 19 18 8 2 1 9 1 4 3 4 3 4 5 4 4 5 5 2 6 4 5 7 7 5
9 10 12 14 16 17 17 17 18 18 19 21 21 22 22 23 24 24 24 24 23 22 20 18 15 0 1 3 1 4 4 3 2 3 3 5 5 4 3 4 10 3 7 11 5 5 4
16 16 16 16 17 18 18 18 18 19 20 21 22 23 23 24 26 26 26 25 23 20 17 15 11 3 2 11 2 2 5 3 2 4 3 4 3 2 2 3 2 3 4 4 5 6 7
15 15 16 15 14 14 14 16 17 19 20 20 22 22 23 25 26 27 26 25 23 17 13 11 3 3 7 2 1 2 2 2 1 4 2 3 4 4 2 4 4 3 2 3 3 8 5
12 13 12 13 15 15 15 17 17 18 19 21 21 23 25 27 28 27 27 26 18 6 5 6 4 3 8 1 1 3 3 1 1 1 2 2 2 3 1 2 3 3 4 6 7 8 4
10 11 11 14 14 15 16 17 19 20 21 22 24 25 27 29 28 27 27 16 5 5 5 2 1 2 3 2 1 1 0 3 1 2 0 2 4 2 1 5 8 5 4 3 5 2 2
9 9 10 11 12 13 16 17 18 19 22 23 25 26 27 28 26 24 12 5 8 6 6 3 3 4 2 3 2 3 2 2 2 3 4 2 3 12 12 2 2 2 3 4 3 3 4
6 6 7 9 11 14 15 17 18 21 22 24 25 27 29 27 23 18 5 7 5 4 10 5 7 7 9 2 4 2 4 4 3 4 2 3 10 8 4 5 6 6 3 5 6 3 5
8 9 10 9 9 12 14 16 19 19 21 23 25 27 29 26 14 6 5 7 6 5 4 8 5 3 2 6 5 4 8 3 4 4 6 6 5 1 9 5 6 8 10 6 7 3 4
11 11 12 10 11 14 14 15 17 18 21 23 25 27 27 24 7 5 1 9 6 3 5 6 1 1 1 1 2 2 5 2 1 6 5 7 6 3 3 5 7 5 7 12 7 2 5
7 10 10 12 13 13 14 13 16 18 20 23 25 26 25 13 4 4 7 11 9 2 6 5 2 3 2 1 0 1 2 2 3 3 5 7 2 4 6 6 9 8 1 5 3 3 2
10 9 8 10 10 13 13 14 15 18 19 21 24 25 20 5 3 5 9 9 2 10 7 4 2 2 3 1 1 1 1 1 2 3 4 7 2 3 5 2 1 4 5 6 4 2 3
11 12 13 9 10 11 13 13 15 18 18 20 23 24 10 3 5 11 7 3 8 7 5 7 3 4 2 3 3 4 4 4 5 2 4 2 5 3 3 3 3 1 5 2 5 4 8
11 13 12 14 12 11 12 15 15 16 19 20 23 21 6 3 6 6 4 7 5 3 5 4 4 5 4 1 4 2 2 3 5 2 1 4 6 8 4 5 7 7 8 5 8 4 5
10 10 12 13 14 13 14 15 14 15 16 20 19 5 4 4 8 3 5 5 8 5 5 7 5 6 6 5 1 1 5 5 5 9 9 4 6 1 2 1 1 6 5 4 3 2 3
11 8 11 11 10 12 12 12 14 14 16 15 4 4 4 7 8 4 6 4 2 6 7 5 2 3 2 6 6 3 2 3 4 11 3 4 4 1 1 1 0 2 2 3 4 3 5
9 10 11 10 13 11 12 13 12 13 14 9 4 5 4 11 3 6 4 6 1 5 5 4 3 4 3 3 2 2 4 4 10 10 4 3 5 2 2 7 8 3 1 2 6 5 5
13 9 12 11 10 11 13 13 12 13 11 7 2 4 5 5 5 2 2 3 7 3 2 3 2 3 3 6 3 4 5 1 10 4 7 5 4 4 10 4 5 4 8 8 7 7 4
12 11 10 13 13 11 12 13 11 11 7 3 1 3 4 5 3 3 5 4 3 1 3 2 2 1 2 1 3 2 5 5 11 12 6 9 5 2 5 4 2 5 6 5 4 3 15
11 14 12 12 15 13 10 11 11 9 5 4 3 3 6 5 1 5 2 4 3 2 4 4 4 0 2 2 2 6 6 7 7 9 16 6 5 6 11 4 2 5 10 16 7 5 8
13 13 13 13 15 13 11 12 12 10 2 4 2 4 5 4 5 2 4 4 4 4 3 3 3 5 6 1 4 5 5 4 5 4 3 4 6 6 16 21 7 5 7 16 18 23 12
12 14 14 14 15 14 12 12 12 10 2 2 4 2 2 2 2 3 5 5 11 10 4 7 8 9 6 7 10 7 3 1 5 4 3 1 6 13 14 17 19 19 11 10 21 18 27
15 14 15 16 15 13 13 13 11 12 3 2 2 2 2 5 4 5 6 8 10 8 9 16 12 5 8 15 7 14 12 11 8 5 1 3 3 4 8 13 17 14 29 18 7 8 12
15 16 15 16 14 15 13 14 13 12 10 4 3 3 4 11 8 10 10 13 17 17 17 16 8 9 12 2 3 3 7 14 13 14 13 10 6 4 10 6 12 10 12 19 21 24 21
14 16 16 15 17 16 16 18 19 17 17 5 3 4 3 6 8 10 17 19 13 16 17 12 18 20 2 3 1 6 6 7 8 17 15 20 11 6 6 8 19 22 4 9 9 22 16
15 16 14 15 17 18 20 20 22 22 22 10 7 6 5 7 16 20 16 15 11 8 3 10 13 4 5 4 4 6 5 6 6 10 6 11 17 10 6 6 9 5 14 9 4 16 7
16 15 15 17 19 21 22 23 25 26 26 16 10 12 8 8 5 10 8 7 6 7 4 3 4 3 5 4 5 4 6 6 3 4 6 6 6 19 17 11 11 11 13 2 13 5 10
15 15 17 19 20 21 23 24 26 27 28 19 13 13 11 9 11 10 8 10 4 6 6 5 4 1 2 4 5 5 4 6 2 4 3 4 8 6 12 13 16 18 9 4 9 11 12
14 17 17 18 21 21 23 24 26 25 28 25 15 12 11 10 4 6 15 20 17 18 8 5 6 6 6 4 1 3 1 0 5 4 5 5 2 4 5 5 14 15 12 5 11 16 11
Wind_Direction
32 56 48 39 23 20 15 12 6 2 359 356 351 349 346 341 336 332 329 325 321 317 318 318 326 326 0 311 256 183 119 115 102 128 179 177 171 169 184 197 231 245 250 227 229 240 237
48 40 39 41 34 31 20 17 13 11 2 354 350 345 339 335 332 328 323 318 313 308 306 310 315 283 230 257 271 151 125 110 161 168 195 184 214 219 237 229 188 255 202 251 226 229 223
51 38 31 24 16 13 2 358 357 349 353 348 345 343 338 332 328 325 318 313 309 302 296 297 296 158 213 240 348 148 150 197 195 185 181 222 236 220 203 253 213 249 262 274 223 209 224
40 31 25 19 10 6 4 5 3 5 2 356 354 347 341 336 329 322 316 311 306 295 291 286 179 122 244 277 169 153 175 300 277 218 232 251 212 255 232 325 346 232 173 215 251 164 231
29 34 26 11 12 11 13 4 3 2 356 353 350 346 343 338 332 324 320 314 312 292 251 138 95 139 273 348 238 243 154 225 144 229 260 276 186 200 73 77 333 263 229 222 321 202 150
25 36 23 25 18 7 7 1 360 358 355 350 350 347 344 340 333 328 326 324 7 82 75 88 2 30 291 308 343 97 179 144 123 127 56 123 50 103 169 162 222 202 226 244 229 249 227
29 29 14 22 10 1 1 359 356 354 354 354 349 346 344 341 337 333 342 17 16 351 32 277 307 288 337 318 36 25 352 100 68 67 173 268 133 218 206 248 255 182 193 241 248 230 189
27 15 15 3 2 357 355 356 353 353 349 352 348 346 343 341 337 345 358 68 36 322 312 242 255 243 247 202 310 244 127 160 142 210 132 42 240 225 166 194 235 245 272 261 283 241 187
19 359 4 359 354 341 346 354 352 353 347 350 347 346 343 341 338 31 41 59 318 329 271 298 238 243 314 145 215 256 149 159 186 198 200 179 242 301 182 176 198 234 234 243 233 328 242
12 8 354 351 355 351 357 350 351 351 348 347 348 348 348 343 39 328 62 338 321 263 62 286 347 320 159 188 213 18 188 162 238 225 182 236 265 211 177 215 166 251 214 229 232 162 236
360 355 351 360 353 352 339 349 347 349 347 347 348 350 351 16 308 30 303 323 312 96 28 264 331 300 11 137 271 1 199 110 219 213 125 248 250 204 203 220 163 230 125 185 198 185 20
356 340 346 346 346 346 351 350 346 343 348 345 344 347 351 359 359 264 316 311 11 43 262 332 322 2 350 259 229 68 141 329 250 249 213 241 270 221 205 95 312 139 68 51 53 89 323
351 348 343 335 334 344 344 346 343 344 345 344 339 340 343 340 317 311 316 22 36 128 310 312 343 3 325 262 280 176 170 184 202 94 248 259 220 205 171 129 65 244 95 310 343 356 226
347 344 345 345 340 340 341 336 344 347 342 342 336 333 312 241 318 322 11 50 99 248 243 317 320 303 226 275 252 186 164 260 229 127 103 205 298 173 192 202 180 205 156 192 209 214 265
337 338 335 341 340 347 342 348 353 348 348 343 341 334 336 302 333 342 68 64 208 210 289 334 344 53 311 342 325 271 212 223 234 176 183 190 271 49 95 1 119 190 221 180 73 81 35
317 331 336 336 340 339 337 342 343 346 351 356 350 347 290 333 326 43 73 236 121 25 332 342 214 127 281 313 359 6 280 219 266 196 171 277 300 44 73 85 52 180 176 111 76 263 269
321 322 330 329 327 331 336 340 338 340 355 359 37 9 282 332 34 46 149 226 346 33 358 334 344 320 303 301 262 311 284 346 349 340 213 351 176 220 123 202 181 147 259 42 129 184 217
317 317 323 319 308 322 326 329 338 347 6 44 25 3 313 7 49 356 70 341 336 319 20 330 330 350 322 11 317 265 261 53 15 309 351 301 237 234 219 230 218 210 198 175 171 213 240
310 308 311 318 321 305 315 326 329 333 36 95 98 269 332 63 99 339 314 307 282 294 298 329 281 165 85 211 321 305 339 68 27 23 9 340 295 341 304 342 348 223 191 202 121 96 232
306 311 311 311 317 318 315 317 308 318 27 88 72 348 321 40 115 130 100 289 299 277 274 262 288 57 86 330 247 276 313 308 0 3 14 322 234 209 245 256 111 227 205 199 152 198 223
299 311 312 315 309 305 308 306 299 294 38 94 100 244 191 284 306 174 156 180 269 283 263 244 293 221 189 239 311 254 268 321 326 322 68 60 283 331 313 283 254 242 277 219 204 225 201
303 303 309 308 302 300 309 303 296 286 134 150 151 196 194 205 214 181 241 210 244 255 191 252 224 244 198 187 204 246 244 189 220 322 41 93 270 322 303 291 247 250 250 232 227 227 237
307 307 304 302 301 302 300 299 295 284 224 207 165 182 158 202 186 178 202 216 227 239 232 241 245 188 226 241 219 238 249 265 232 172 217 235 265 343 274 344 299 237 223 223 200 219 220
292 300 302 307 308 302 303 296 287 285 256 181 181 166 197 248 213 212 225 224 237 244 245 251 220 220 237 66 305 287 252 252 247 249 209 231 230 230 280 315 262 270 174 204 219 236 226
300 300 301 312 306 306 300 296 295 288 268 221 194 193 234 267 239 234 234 236 243 246 261 254 251 237 119 132 15 347 324 354 264 233 229 215 205 234 239 255 295 294 229 165 176 255 228
294 295 298 300 302 304 298 299 294 285 279 268 219 200 238 255 244 240 238 227 228 224 313 237 262 159 166 190 133 206 225 218 294 319 250 236 209 206 185 253 257 282 238 186 129 270 248
290 298 301 302 299 299 302 296 290 286 281 271 251 202 224 250 246 223 231 234 223 206 195 273 257 145 182 167 196 183 241 191 259 232 313 303 211 208 222 226 268 338 315 174 175 275 322
292 293 297 300 304 300 299 304 302 298 291 277 259 206 215 240 235 203 202 217 203 207 200 230 69 317 66 160 145 224 177 226 132 220 224 271 281 203 212 210 238 8 335 1 323 314 313
288 290 303 302 297 310 313 311 310 306 308 298 260 215 199 226 204 190 221 221 223 220 205 190 202 175 185 97 283 89 278 9 182 253 229 258 317 320 322 329 341 320 289 293 333 307 329